Tracking 29089 objects as of 12-Jul-2024
HD Live streaming from Space Station
objects crossing your sky now

ATLAS 5 CENTAUR DEB

Track ATLAS 5 CENTAUR DEB now!


NORAD ID: 44647
Int'l Code: 2018-079H
Perigee: 8,497.3 km
Apogee: 34,211.9 km
Inclination: 12.6 °
Period: 765.7 minutes
Semi major axis: 27725 km
RCS: Unknown
Launch date: October 17, 2018
Source: United States (US)
Launch site: AIR FORCE EASTERN TEST RANGE (AFETR)

Note: This is SATELLITE DEBRIS
Your satellite tracking list
Your tracking list is empty




NASA's NSSDC Master Catalog

Two Line Element Set (TLE):
1 44647U 18079H   24190.16620684 -.00000150  00000-0  00000+0 0  9995
2 44647  12.6076  85.0283 4637328 218.3588  97.1938  1.88053223 39240
Source of the keplerian elements: AFSPC